Regional Weather Roundup
Issued by NWS

Home | Current Version | Previous Version | Graphics & Text | Print | Product List | Glossary On
Versions: 1 2 3 4 5 6 7 8 9 10 11 12 13 14 15 16 17 18 19 20 21 22 23 24 25 26 27 28 29 30 31 32 33 34 35 36 37 38 39 40 41 42 43 44 45 46 47 48 49 50
993
ASUS45 KSLC 221910
RWRUT

UTAH REGIONAL WEATHER ROUNDUP
NATIONAL WEATHER SERVICE SALT LAKE CITY UT
100 PM MDT FRI SEP 22 2017

UTZ001>011-023>025-222000-

NORTHERN UTAH

CITY           SKY/WX    TMP DP  RH WIND       PRES   REMARKS
BRIGHAM CITY   CLOUDY    47  38  70 CALM      29.93S
HILL AFB       CLOUDY    44  40  87 N3        29.91F
LOGAN          CLOUDY    49  39  68 NW5       29.91F
OGDEN          CLOUDY    45  40  82 N5        29.92S
SALT LAKE CITY CLOUDY    49  41  74 NW12      29.91S
TOOELE VALLEY  CLOUDY    48  39  71 N6        29.92R
WENDOVER       CLOUDY    48  35  60 NE7       29.93F
HEBER CITY     MOSUNNY   54  34  47 SW9       29.85F
WEST JORDAN    PTSUNNY   47  46  93 NW13G20   29.91S

$$

UTZ011>015-024>027-222000-

CENTRAL/NORTHEAST UTAH

CITY           SKY/WX    TMP DP  RH WIND       PRES   REMARKS
PROVO AIRPORT  MOSUNNY   52  40  63 SW7       29.90F
MOAB/CANYONLAN MOSUNNY   76  34  21 S22G32    29.73F
DELTA          PTSUNNY   48  34  57 CALM      29.90S
PRICE          PTSUNNY   64  32  30 S12       29.78F
ROOSEVELT      SUNNY     64  32  29 CALM      29.81F
VERNAL         SUNNY     65  37  35 S9G17     29.79F

$$

UTZ013>016-019>022-027-222000-

SOUTHERN UTAH

CITY           SKY/WX    TMP DP  RH WIND       PRES   REMARKS
BRYCE CANYON   PTSUNNY   54  23  30 S17G31    29.90S
CEDAR CITY     SUNNY     55  44  66 N7        29.86F
MILFORD        MOSUNNY   52  41  66 NE9       29.89S
ST GEORGE      PTCLDY    69  30  23 W15       29.82F
HANKSVILLE     MOSUNNY   72  28  20 SW22G32   29.75F
BLANDING         N/A     69  33  25 S24G35    29.93F

$$

REGIONAL REPORTS     COLORADO/ARIZONA

CITY           SKY/WX    TMP DP  RH WIND       PRES   REMARKS
CRAIG, CO      LGT RAIN  59  40  49 CALM      29.87F
GRAND JUNCTION SUNNY     77  29  17 S28G36    29.77S
RIFLE, CO      SUNNY     75  35  23 SW16G24   29.81F
MONTROSE, CO   MOSUNNY   73  31  21 SW22G30   29.86S
CORTEZ, CO     CLOUDY    71  33  24 S14       29.91F
PAGE, AZ       SUNNY     75  30  19 SW9G22    29.75F
GRAND CANYON   SUNNY     62  34  35 SW26G33   29.92F
KINGMAN, AZ    SUNNY     69  27  20 W15G24    29.85F
FLAGSTAFF, AZ  PTSUNNY   55  47  74 S21G30    29.97F

$$

REGIONAL REPORTS    NEVADA/IDAHO/WYOMING

CITY           SKY/WX    TMP DP  RH WIND       PRES   REMARKS
LAS VEGAS, NV  MOSUNNY   70  29  21 NW3       29.82F
ELY, NY        CLOUDY    35  33  92 S7        29.94S WCI  29
ELKO, NV       HVY RAIN  37  32  82 SW16      29.94R WCI  28
POCATELLO, ID  CLOUDY    45  39  79 SW12      29.95R
BURLEY, ID     MOSUNNY   47  35  63 W9G18     29.93S
FORT BRIDGER,    N/A     50  36  58 W8        29.91F
EVANSTON, WY   PTSUNNY   45  35  68 SW12      29.89S
ROCK SPRINGS,  MOSUNNY   51  41  68 NE9       29.88F
KEMMERER, WY     N/A     50  32  50 SW13G22   29.89S

$$




USA.gov is the U.S. government's official web portal to all federal, state and local government web resources and services.